When you browse on this site, cookies collect data to enhance your experience and personalize the content and advertising you see.
Visit our Privacy Policy to learn more. By continuing to use the site, you agree to this use of cookies and data.
  • In Lithuania
  • List of Countries
  • For 7 days
  • Water Temperature
  • Weather Map
  • Weather Widgets
  • user-avatar
    Login

    Hourly Weather Pinsa

    Today, 22 September, Sunday

    Time Temperature Precipitation Wind Pressure Humidity
    00:00 +31°C° 0 mm 2 mps 734 mmHg 48%
    01:00 +31°C° 0 mm 2 mps 733 mmHg 49%
    02:00 +30°C° 0 mm 2 mps 733 mmHg 50%
    03:00 +30°C° 0 mm 3 mps 733 mmHg 52%
    04:00 +29°C° 0 mm 2 mps 733 mmHg 54%
    05:00 +29°C° 0 mm 2 mps 733 mmHg 57%
    06:00 +29°C° 0 mm 3 mps 734 mmHg 58%
    07:00 +30°C° 0 mm 3 mps 734 mmHg 55%
    08:00 +33°C° 0 mm 4 mps 734 mmHg 51%
    09:00 +34°C° 0 mm 4 mps 735 mmHg 48%
    10:00 +36°C° 0 mm 3 mps 734 mmHg 43%
    11:00 +37°C° 0 mm 3 mps 734 mmHg 39%
    12:00 +38°C° 0 mm 3 mps 733 mmHg 36%
    13:00 +39°C° 0 mm 2 mps 733 mmHg 33%
    14:00 +40°C° 0 mm 1 mps 732 mmHg 29%
    15:00 +40°C° 0 mm 1 mps 732 mmHg 25%
    16:00 +40°C° 0 mm 1 mps 732 mmHg 27%
    17:00 +39°C° 0 mm 2 mps 732 mmHg 29%
    18:00 +38°C° 0 mm 2 mps 732 mmHg 31%
    19:00 +37°C° 0 mm 2 mps 732 mmHg 34%
    20:00 +36°C° 0 mm 2 mps 732 mmHg 36%
    21:00 +35°C° 0 mm 2 mps 733 mmHg 38%
    22:00 +35°C° 0 mm 3 mps 733 mmHg 41%
    23:00 +34°C° 0 mm 3 mps 733 mmHg 43%

    Tomorrow, 23 September, Monday

    Time Temperature Precipitation Wind Pressure Humidity
    00:00 +34°C° 0 mm 4 mps 733 mmHg 45%
    01:00 +33°C° 0 mm 3 mps 733 mmHg 49%
    02:00 +31°C° 0 mm 3 mps 732 mmHg 53%
    03:00 +31°C° 0 mm 3 mps 732 mmHg 57%
    04:00 +30°C° 0 mm 3 mps 732 mmHg 59%
    05:00 +30°C° 0 mm 3 mps 733 mmHg 60%
    06:00 +29°C° 0 mm 3 mps 733 mmHg 62%
    07:00 +31°C° 0 mm 3 mps 733 mmHg 58%
    08:00 +33°C° 0 mm 3 mps 734 mmHg 54%
    09:00 +34°C° 0 mm 3 mps 734 mmHg 50%
    10:00 +36°C° 0 mm 3 mps 734 mmHg 44%
    11:00 +38°C° 0 mm 2 mps 734 mmHg 38%
    12:00 +39°C° 0 mm 2 mps 733 mmHg 32%
    13:00 +40°C° 0 mm 2 mps 733 mmHg 28%
    14:00 +41°C° 0 mm 1 mps 732 mmHg 24%
    15:00 +42°C° 0 mm 1 mps 732 mmHg 21%
    16:00 +41°C° 0 mm 1 mps 732 mmHg 22%
    17:00 +40°C° 0 mm 1 mps 732 mmHg 24%
    18:00 +40°C° 0 mm 1 mps 732 mmHg 25%
    19:00 +39°C° 0 mm 1 mps 732 mmHg 26%
    20:00 +38°C° 0 mm 2 mps 732 mmHg 27%
    21:00 +38°C° 0 mm 2 mps 733 mmHg 28%
    22:00 +37°C° 0 mm 3 mps 733 mmHg 32%
    23:00 +36°C° 0 mm 3 mps 733 mmHg 35%

    Day after tomorrow, 24 September, Tuesday

    Time Temperature Precipitation Wind Pressure Humidity
    00:00 +35°C° 0 mm 3 mps 733 mmHg 39%
    01:00 +34°C° 0 mm 4 mps 733 mmHg 43%
    02:00 +33°C° 0 mm 4 mps 733 mmHg 48%
    03:00 +32°C° 0 mm 4 mps 732 mmHg 52%
    04:00 +32°C° 0 mm 4 mps 733 mmHg 55%
    05:00 +32°C° 0 mm 4 mps 733 mmHg 57%
    06:00 +30°C° 0 mm 3 mps 733 mmHg 60%
    07:00 +33°C° 0 mm 4 mps 733 mmHg 55%
    08:00 +34°C° 0 mm 5 mps 734 mmHg 50%
    09:00 +36°C° 0 mm 5 mps 734 mmHg 45%
    10:00 +38°C° 0 mm 4 mps 734 mmHg 39%
    11:00 +40°C° 0 mm 4 mps 733 mmHg 33%
    12:00 +42°C° 0 mm 3 mps 733 mmHg 28%
    13:00 +42°C° 0 mm 3 mps 732 mmHg 24%
    14:00 +42°C° 0 mm 2 mps 732 mmHg 21%
    15:00 +43°C° 0 mm 2 mps 731 mmHg 18%
    16:00 +42°C° 0 mm 3 mps 731 mmHg 21%
    17:00 +41°C° 0 mm 5 mps 731 mmHg 25%
    18:00 +39°C° 0 mm 6 mps 731 mmHg 29%
    19:00 +38°C° 0 mm 6 mps 732 mmHg 34%
    20:00 +36°C° 0 mm 6 mps 732 mmHg 39%
    21:00 +35°C° 0 mm 6 mps 733 mmHg 44%
    22:00 +34°C° 0 mm 5 mps 733 mmHg 49%
    23:00 +33°C° 0 mm 5 mps 732 mmHg 54%

    25 September, Wednesday

    Time Temperature Precipitation Wind Pressure Humidity
    00:00 +33°C° 0 mm 5 mps 732 mmHg 59%
    01:00 +32°C° 0 mm 5 mps 732 mmHg 59%
    02:00 +32°C° 0 mm 5 mps 732 mmHg 59%
    03:00 +30°C° 0 mm 4 mps 732 mmHg 60%
    04:00 +30°C° 0 mm 4 mps 732 mmHg 60%
    05:00 +29°C° 0 mm 4 mps 733 mmHg 60%
    06:00 +29°C° 0 mm 3 mps 733 mmHg 60%
    07:00 +30°C° 0 mm 4 mps 733 mmHg 55%
    08:00 +33°C° 0 mm 4 mps 734 mmHg 51%
    09:00 +34°C° 0 mm 5 mps 734 mmHg 46%
    10:00 +36°C° 0 mm 5 mps 734 mmHg 42%
    11:00 +37°C° 0 mm 5 mps 734 mmHg 38%
    12:00 +40°C° 0 mm 5 mps 733 mmHg 34%
    13:00 +41°C° 0 mm 4 mps 733 mmHg 31%
    14:00 +40°C° 0 mm 3 mps 732 mmHg 28%
    15:00 +41°C° 0 mm 2 mps 731 mmHg 26%
    16:00 +40°C° 0 mm 2 mps 731 mmHg 27%
    17:00 +39°C° 0 mm 2 mps 731 mmHg 29%
    18:00 +38°C° 0 mm 3 mps 731 mmHg 31%
    19:00 +36°C° 0.5 mm 5 mps 732 mmHg 39%
    20:00 +34°C° 0.5 mm 6 mps 732 mmHg 48%
    21:00 +33°C° 0.5 mm 8 mps 733 mmHg 56%
    22:00 +32°C° 0.2 mm 7 mps 733 mmHg 52%
    23:00 +32°C° 0.2 mm 6 mps 733 mmHg 47%

    26 September, Thursday

    Time Temperature Precipitation Wind Pressure Humidity
    00:00 +32°C° 0.2 mm 5 mps 733 mmHg 43%
    01:00 +32°C° 0 mm 4 mps 733 mmHg 46%
    02:00 +32°C° 0 mm 4 mps 733 mmHg 50%
    03:00 +30°C° 0 mm 4 mps 732 mmHg 54%
    04:00 +30°C° 0 mm 4 mps 733 mmHg 57%
    05:00 +30°C° 0 mm 4 mps 733 mmHg 61%
    06:00 +29°C° 0 mm 4 mps 734 mmHg 65%
    07:00 +32°C° 0 mm 5 mps 734 mmHg 60%
    08:00 +33°C° 0 mm 5 mps 735 mmHg 56%
    09:00 +35°C° 0 mm 6 mps 735 mmHg 51%
    10:00 +36°C° 0 mm 5 mps 735 mmHg 46%
    11:00 +39°C° 0 mm 5 mps 734 mmHg 40%
    12:00 +40°C° 0 mm 4 mps 734 mmHg 35%
    13:00 +41°C° 0 mm 4 mps 733 mmHg 32%
    14:00 +42°C° 0 mm 3 mps 732 mmHg 28%
    15:00 +41°C° 0 mm 2 mps 732 mmHg 25%
    16:00 +41°C° 0 mm 2 mps 732 mmHg 26%
    17:00 +40°C° 0 mm 2 mps 732 mmHg 27%
    18:00 +39°C° 0 mm 3 mps 732 mmHg 28%
    19:00 +38°C° 0 mm 3 mps 732 mmHg 31%
    20:00 +37°C° 0 mm 3 mps 733 mmHg 34%
    21:00 +36°C° 0 mm 3 mps 733 mmHg 37%
    22:00 +35°C° 0 mm 4 mps 733 mmHg 42%
    23:00 +34°C° 0 mm 5 mps 733 mmHg 47%

    27 September, Friday

    Time Temperature Precipitation Wind Pressure Humidity
    00:00 +33°C° 0 mm 6 mps 733 mmHg 52%
    01:00 +32°C° 0 mm 6 mps 733 mmHg 54%
    02:00 +32°C° 0 mm 5 mps 733 mmHg 55%
    03:00 +30°C° 0 mm 4 mps 733 mmHg 57%
    04:00 +30°C° 0 mm 4 mps 733 mmHg 59%
    05:00 +30°C° 0 mm 4 mps 733 mmHg 61%
    06:00 +29°C° 0 mm 4 mps 733 mmHg 63%
    07:00 +32°C° 0 mm 4 mps 734 mmHg 57%
    08:00 +33°C° 0 mm 5 mps 734 mmHg 52%
    09:00 +35°C° 0 mm 5 mps 735 mmHg 47%
    10:00 +36°C° 0 mm 5 mps 734 mmHg 41%
    11:00 +38°C° 0 mm 4 mps 734 mmHg 36%
    12:00 +40°C° 0 mm 4 mps 733 mmHg 31%
    13:00 +40°C° 0 mm 3 mps 733 mmHg 29%
    14:00 +42°C° 0 mm 3 mps 732 mmHg 27%
    15:00 +42°C° 0 mm 3 mps 731 mmHg 26%
    16:00 +40°C° 0 mm 3 mps 731 mmHg 28%
    17:00 +39°C° 0 mm 3 mps 731 mmHg 31%
    18:00 +38°C° 0 mm 3 mps 731 mmHg 33%
    19:00 +37°C° 0.1 mm 4 mps 732 mmHg 37%
    20:00 +36°C° 0.1 mm 4 mps 732 mmHg 41%
    21:00 +35°C° 0.1 mm 4 mps 732 mmHg 44%
    22:00 +35°C° 0 mm 4 mps 732 mmHg 48%
    23:00 +34°C° 0 mm 4 mps 733 mmHg 52%
    Show more